TimeAST,TemperatureF,Dew PointF,Humidity,Sea Level PressureIn,VisibilityMPH,Wind Direction,Wind SpeedMPH,Gust SpeedMPH,PrecipitationIn,Events,Conditions,WindDirDegrees,DateUTC
12:00 AM,68.0,55.4,64,30.09,-9999.0,WNW,10.4,-,N/A,,Clear,290,2012-11-30 21:00:00
12:30 AM,68.0,55.4,64,30.09,-9999.0,WNW,6.9,-,N/A,,Clear,300,2012-11-30 21:30:00
1:00 AM,68.0,57.2,68,30.09,5.0,WNW,6.9,-,N/A,,Unknown,300,2012-11-30 22:00:00
1:30 AM,68.0,57.2,68,30.06,5.0,West,6.9,-,N/A,,Unknown,280,2012-11-30 22:30:00
2:00 AM,68.0,59.0,73,30.06,3.7,West,6.9,-,N/A,,Unknown,280,2012-11-30 23:00:00
2:30 AM,68.0,59.0,73,30.06,3.7,West,5.8,-,N/A,,Unknown,270,2012-11-30 23:30:00
3:00 AM,67,60,72,30.09,4,West,5.8,,,,Haze,260,2012-12-01 00:00:00
3:00 AM,66.2,60.8,83,30.06,3.7,West,5.8,-,N/A,,Unknown,260,2012-12-01 00:00:00
3:30 AM,66.2,60.8,83,30.06,4.3,WSW,5.8,-,N/A,,Unknown,250,2012-12-01 00:30:00
4:00 AM,66.2,60.8,83,30.06,4.3,WSW,5.8,-,N/A,,Unknown,250,2012-12-01 01:00:00
4:30 AM,66.2,60.8,83,30.06,4.3,West,4.6,-,N/A,,Partly Cloudy,260,2012-12-01 01:30:00
5:00 AM,66.2,60.8,83,30.06,4.3,West,5.8,-,N/A,,Partly Cloudy,270,2012-12-01 02:00:00
5:30 AM,66.2,60.8,83,30.06,4.3,West,8.1,-,N/A,,Partly Cloudy,280,2012-12-01 02:30:00
6:00 AM,68.0,60.8,78,30.09,4.3,WNW,8.1,-,N/A,,Partly Cloudy,300,2012-12-01 03:00:00
6:30 AM,68.0,60.8,78,30.09,3.7,WNW,6.9,-,N/A,,Partly Cloudy,290,2012-12-01 03:30:00
7:00 AM,68.0,60.8,78,30.12,3.7,WNW,6.9,-,N/A,,Partly Cloudy,290,2012-12-01 04:00:00
7:30 AM,68.0,60.8,78,30.12,4.3,WNW,8.1,-,N/A,,Partly Cloudy,300,2012-12-01 04:30:00
8:00 AM,68.0,60.8,78,30.12,5.0,WNW,8.1,-,N/A,,Partly Cloudy,300,2012-12-01 05:00:00
8:30 AM,69.8,60.8,73,30.12,5.0,WNW,6.9,-,N/A,,Scattered Clouds,300,2012-12-01 05:30:00
9:00 AM,72,61,59,30.16,5,WNW,8.1,,,,Haze,300,2012-12-01 06:00:00
9:00 AM,71.6,60.8,69,30.15,5.0,WNW,8.1,-,N/A,,Scattered Clouds,300,2012-12-01 06:00:00
9:30 AM,73.4,60.8,65,30.15,5.0,NW,9.2,-,N/A,,Scattered Clouds,310,2012-12-01 06:30:00
10:00 AM,73.4,60.8,65,30.12,5.0,WNW,9.2,-,N/A,,Scattered Clouds,300,2012-12-01 07:00:00
10:30 AM,75.2,60.8,61,30.12,5.0,NW,10.4,-,N/A,,Scattered Clouds,320,2012-12-01 07:30:00
11:00 AM,77.0,60.8,57,30.12,6.2,NNW,11.5,-,N/A,,Scattered Clouds,340,2012-12-01 08:00:00
11:30 AM,77.0,60.8,57,30.09,6.2,NNW,12.7,-,N/A,,Mostly Cloudy,340,2012-12-01 08:30:00
12:00 PM,77.0,59.0,54,30.09,6.2,NNW,11.5,-,N/A,,Mostly Cloudy,340,2012-12-01 09:00:00
12:30 PM,75.2,60.8,61,30.06,6.2,NNW,8.1,-,N/A,,Partly Cloudy,330,2012-12-01 09:30:00
1:00 PM,77.0,60.8,57,30.06,6.2,NNW,8.1,-,N/A,,Scattered Clouds,340,2012-12-01 10:00:00
1:30 PM,73.4,60.8,65,30.04,6.2,NNW,13.8,-,N/A,Rain,Rain,330,2012-12-01 10:30:00
2:00 PM,71.6,62.6,73,30.04,6.2,North,6.9,-,N/A,,Scattered Clouds,360,2012-12-01 11:00:00
2:30 PM,75.2,64.4,69,30.04,6.2,North,6.9,-,N/A,,Mostly Cloudy,10,2012-12-01 11:30:00
3:00 PM,75,62,55,30.05,7,North,11.5,,,Rain,Light Rain,0,2012-12-01 12:00:00
3:00 PM,75.2,62.6,65,30.04,6.2,North,11.5,-,N/A,,Scattered Clouds,360,2012-12-01 12:00:00
3:30 PM,75.2,62.6,65,30.04,6.2,North,10.4,-,N/A,,Scattered Clouds,360,2012-12-01 12:30:00
4:00 PM,75.2,62.6,65,30.04,6.2,North,10.4,-,N/A,,Scattered Clouds,360,2012-12-01 13:00:00
4:30 PM,75.2,60.8,61,30.04,6.2,North,11.5,-,N/A,,Partly Cloudy,350,2012-12-01 13:30:00
5:00 PM,73.4,60.8,65,30.04,6.2,North,10.4,-,N/A,,Partly Cloudy,350,2012-12-01 14:00:00
5:30 PM,73.4,57.2,57,30.06,-9999.0,NNW,12.7,-,N/A,,Clear,340,2012-12-01 14:30:00
6:00 PM,73.4,55.4,53,30.06,-9999.0,NNW,15.0,-,N/A,,Clear,340,2012-12-01 15:00:00
6:30 PM,73.4,55.4,53,30.06,-9999.0,NNW,13.8,-,N/A,,Clear,340,2012-12-01 15:30:00
7:00 PM,73.4,53.6,50,30.09,-9999.0,NNW,13.8,-,N/A,,Clear,330,2012-12-01 16:00:00
7:30 PM,73.4,53.6,50,30.09,-9999.0,NNW,13.8,-,N/A,,Clear,340,2012-12-01 16:30:00
8:00 PM,73.4,53.6,50,30.09,-9999.0,NNW,12.7,-,N/A,,Clear,340,2012-12-01 17:00:00
8:30 PM,71.6,55.4,57,30.09,-9999.0,NNW,11.5,-,N/A,,Clear,330,2012-12-01 17:30:00
9:00 PM,72,56,47,30.11,7,NNW,10.4,,,,,330,2012-12-01 18:00:00
9:00 PM,71.6,55.4,57,30.09,-9999.0,NNW,10.4,-,N/A,,Clear,330,2012-12-01 18:00:00
9:30 PM,71.6,57.2,60,30.09,-9999.0,NNW,12.7,-,N/A,,Clear,330,2012-12-01 18:30:00
10:00 PM,71.6,55.4,57,30.09,-9999.0,NW,10.4,-,N/A,,Clear,320,2012-12-01 19:00:00
10:30 PM,71.6,55.4,57,30.09,-9999.0,NW,9.2,-,N/A,,Clear,320,2012-12-01 19:30:00
11:00 PM,71.6,55.4,57,30.09,-9999.0,NW,9.2,-,N/A,,Clear,320,2012-12-01 20:00:00
11:30 PM,71.6,55.4,57,30.09,-9999.0,NW,8.1,-,N/A,,Clear,320,2012-12-01 20:30:00